1504969200.69,20509,15.44,73352.5,5.13,3.75,2.95,0,*7B
1504969201.94,20510,15.44,73360.3,5.13,3.49,2.59,0,*7C
1504969203.13,20511,15.44,73352.3,5.15,3.19,2.35,0,*74
1504969204.34,20512,15.44,73340.3,5.15,3.07,2.35,0,*78
1504969205.56,20513,15.44,73342.8,5.17,2.99,2.85,0,*76
1504969206.78,20514,15.44,73344.0,5.13,3.63,3.53,0,*7B
1504969208.03,20515,15.44,73338.3,5.17,3.71,3.53,0,*7D
1504969209.24,20516,15.44,73342.3,5.15,3.41,3.25,0,*7E
1504969210.49,20517,15.44,73368.3,5.17,3.79,3.19,0,*79
1504969211.71,20518,15.44,73340.3,5.17,2.91,2.01,0,*79
1504969212.96,20519,15.44,73328.0,5.17,2.85,2.47,0,*7F
1504969214.16,20520,15.44,73328.5,5.15,2.95,2.59,0,*79
1504969215.42,20521,15.44,73334.3,5.17,3.07,2.59,0,*70
1504969216.62,20522,15.44,73320.5,5.15,2.91,2.55,0,*73
1504969217.86,20523,15.44,73342.8,5.15,3.15,2.81,0,*76
1504969219.06,20524,15.44,73356.8,5.19,2.95,2.47,0,*7E
1504969220.29,20525,15.44,73358.5,5.19,2.81,1.97,0,*74
1504969221.52,20526,15.44,73354.8,5.19,2.81,2.01,0,*7B
1504969222.71,20527,15.44,73354.3,5.21,3.29,2.91,0,*7B
1504969223.96,20528,15.44,73358.8,5.21,3.33,3.15,0,*72
1504969225.22,20529,15.44,73352.8,5.21,3.23,3.15,0,*72
1504969226.41,20530,15.44,73362.8,5.19,2.69,2.35,0,*7D
1504969227.64,20531,15.44,73360.5,5.23,1.71,1.55,0,*7A
1504969228.85,20532,15.44,73340.5,5.23,0.13,0.21,0,*7E
1504969230.09,20533,15.44,73348.0,5.23,-1.13,-1.35,0,*7A
1504969231.3,20534,15.44,73358.3,5.23,-1.35,-1.71,0,*79
1504969232.51,20535,15.44,73360.0,5.23,-1.79,-2.03,0,*76
1504969233.73,20536,15.44,73346.8,5.23,-1.87,-1.71,0,*72
1504969234.97,20537,15.44,73362.8,5.21,-1.71,-1.47,0,*7D
1504969236.18,20538,15.44,73358.8,5.25,-0.89,-0.45,0,*73
1504969237.39,20539,15.44,73324.0,5.23,-0.89,-0.41,0,*70
1504969238.59,20540,15.44,73328.5,5.23,-0.11,0.37,0,*53
1504969239.81,20541,15.44,73340.8,5.23,1.29,1.43,0,*77
1504969241.03,20542,15.44,73352.3,5.23,1.43,1.67,0,*7E
1504969242.23,20543,15.44,73348.3,5.23,1.41,1.67,0,*7D
1504969243.43,20544,15.44,73356.0,5.23,1.79,2.05,0,*76
1504969244.64,20545,15.44,73358.5,5.21,1.89,2.27,0,*7A
1504969245.9,20546,15.44,73360.5,5.21,2.01,2.51,0,*7B
1504969247.11,20547,15.44,73356.0,5.21,0.75,1.83,0,*47
1504969248.32,20548,15.44,73348.3,5.23,0.37,1.71,0,*41
1504969249.55,20549,15.44,73348.5,5.25,-0.27,1.21,0,*6F
1504969250.74,20550,15.44,73342.0,5.23,-1.51,0.67,0,*62
1504969251.94,20551,15.44,73338.8,5.23,-2.15,0.47,0,*62
1504969253.19,20552,15.44,73342.0,5.21,-1.91,0.71,0,*69
1504969254.44,20553,15.44,73338.8,5.21,-2.55,0.47,0,*66
1504969255.62,20554,15.44,73338.8,5.19,-1.33,1.01,0,*5A
1504969256.84,20555,15.44,73336.3,5.21,-2.27,0.71,0,*60
1504969258.04,20556,15.44,73334.5,5.19,-2.27,0.79,0,*60
1504969259.28,20557,15.44,73334.3,5.19,-1.05,1.25,0,*5A
1504969260.47,20558,15.44,73330.5,5.19,-0.33,1.55,0,*66
1504969261.7,20559,15.44,73332.3,5.17,1.05,2.25,0,*74
1504969262.93,20560,15.44,73336.8,5.17,1.41,2.39,0,*73
1504969264.18,20561,15.44,73346.3,5.17,1.67,2.47,0,*7F
1504969265.43,20562,15.44,73342.3,5.17,2.09,2.47,0,*77
1504969266.68,20563,15.44,73336.3,5.17,2.47,2.69,0,*70
1504969267.9,20564,15.44,73344.8,5.17,2.95,3.11,0,*76
1504969269.13,20565,15.44,73342.3,5.15,2.89,3.03,0,*7B
1504969270.34,20566,15.44,73338.8,5.15,3.07,3.25,0,*7B
1504969271.53,20567,15.44,73338.8,5.17,3.55,3.63,0,*7D
1504969272.76,20568,15.44,73346.5,5.17,3.45,3.55,0,*76
1504969273.99,20569,15.44,73352.0,5.17,3.29,3.41,0,*78
1504969275.17,20570,15.44,73352.0,5.15,3.29,3.29,0,*7C
1504969276.35,20571,15.44,73354.3,5.15,3.25,3.25,0,*7D
1504969277.54,20572,15.44,73340.0,5.19,3.55,3.53,0,*74
1504969278.79,20573,15.44,73348.3,5.17,3.33,3.37,0,*79
1504969279.97,20574,15.44,73356.3,5.15,3.25,3.25,0,*78
1504969281.2,20575,15.44,73350.0,5.15,3.41,3.49,0,*71
1504969282.42,20576,15.44,73356.8,5.15,3.49,3.53,0,*71
1504969283.66,20577,15.44,73338.5,5.15,3.03,3.07,0,*7F
1504969284.89,20578,15.44,73342.5,5.15,3.03,3.03,0,*74
1504969286.09,20579,15.44,73340.3,5.15,3.37,3.29,0,*7A
1504969287.31,20580,15.44,73334.8,5.15,3.49,3.53,0,*78
1504969288.54,20581,15.5,73342.3,5.15,3.07,3.19,0,*7D
1504969289.79,20582,15.44,73344.8,5.13,3.37,3.37,0,*77
1504969291.04,20583,15.44,73338.8,5.13,3.15,3.19,0,*7A
1504969292.26,20584,15.44,73340.5,5.13,2.89,2.91,0,*78
1504969293.46,20585,15.44,73346.3,5.11,2.81,2.91,0,*73
1504969294.67,20586,15.44,73342.3,5.11,2.91,2.89,0,*78
1504969295.89,20587,15.44,73340.3,5.13,2.95,3.03,0,*7C
1504969297.11,20588,15.44,73330.8,5.11,2.85,2.85,0,*7F
1504969298.34,20589,15.44,73344.3,5.09,2.95,2.89,0,*7A
1504969299.57,20590,15.44,73346.8,5.09,2.73,2.61,0,*7C
1504969300.77,20591,15.44,73334.0,5.11,2.65,2.55,0,*74
1504969302.0,20592,15.44,73334.3,5.09,2.69,2.61,0,*75
1504969303.2,20593,15.44,73334.5,5.09,2.61,2.61,0,*7C
1504969304.43,20594,15.44,73350.0,5.07,2.69,2.69,0,*75
1504969305.63,20595,15.44,73356.8,5.07,2.61,2.69,0,*7C
1504969306.86,20596,15.44,73360.5,5.07,2.69,2.73,0,*7C
1504969308.08,20597,15.44,73360.5,5.07,2.73,2.81,0,*7B
1504969309.29,20598,15.44,73364.0,5.03,2.65,2.69,0,*71
1504969310.49,20599,15.44,73358.3,5.03,2.65,2.69,0,*70
1504969311.72,20600,15.44,73342.8,5.03,2.77,2.77,0,*7F
1504969312.95,20601,15.44,73344.5,5.03,3.03,3.07,0,*7A
1504969314.19,20602,15.44,73334.0,5.03,3.15,3.15,0,*7D
1504969315.41,20603,15.44,73334.8,5.03,3.19,3.19,0,*7C
1504969316.61,20604,15.44,73330.3,5.03,2.95,3.03,0,*75
1504969317.87,20605,15.44,73336.5,5.01,3.41,3.41,0,*78
1504969319.09,20606,15.44,73336.5,5.03,3.19,3.19,0,*79
1504969320.32,20607,15.44,73332.5,5.03,2.77,2.77,0,*78
1504969321.55,20608,15.44,73346.0,5.01,3.07,2.95,0,*7F
1504969322.79,20609,15.44,73352.5,5.03,3.15,3.15,0,*76
1504969324.04,20610,15.44,73346.5,5.01,2.77,2.77,0,*7C
1504969325.27,20611,15.44,73340.8,5.03,2.69,2.77,0,*70
1504969326.52,20612,15.44,73350.0,5.01,2.43,2.47,0,*7A
1504969327.76,20613,15.44,73344.3,4.99,2.39,2.39,0,*7F
1504969328.99,20614,15.44,73340.0,4.99,2.55,2.43,0,*7F
1504969330.24,20615,15.44,73346.5,5.01,2.69,2.69,0,*79
1504969331.48,20616,15.44,73338.5,4.97,2.73,2.73,0,*74
1504969332.73,20617,15.44,73346.5,4.97,2.73,2.73,0,*75
1504969333.94,20618,15.44,73348.8,4.97,2.61,2.61,0,*7A
1504969335.18,20619,15.44,73350.0,4.97,2.85,2.85,0,*7B
1504969336.43,20620,15.44,73350.5,4.97,2.89,2.85,0,*7D
1504969337.67,20621,15.44,73342.5,4.95,3.07,3.07,0,*72
1504969338.89,20622,15.44,73356.8,4.95,3.19,3.19,0,*71
1504969340.13,20623,15.44,73356.8,4.95,2.77,2.89,0,*71
1504969341.37,20624,15.44,73360.8,4.97,2.73,2.85,0,*7C
1504969342.63,20625,15.44,73370.0,4.93,2.69,2.77,0,*7F
1504969343.86,20626,15.44,73358.0,4.95,2.77,2.77,0,*75
1504969345.06,20627,15.44,73364.0,4.95,2.61,2.69,0,*7C
1504969346.27,20628,15.44,73378.0,4.93,2.95,2.95,0,*7D
1504969347.53,20629,15.44,73382.5,4.93,2.81,2.81,0,*7C
1504969348.76,20630,15.44,73370.3,4.95,2.73,2.69,0,*79
1504969349.97,20631,15.44,73356.5,4.93,2.91,2.91,0,*75
1504969351.19,20632,15.44,73350.3,4.95,2.85,2.85,0,*70
1504969352.42,20633,15.44,73358.3,4.91,2.81,2.91,0,*74
1504969353.67,20634,15.44,73372.0,4.91,3.03,3.15,0,*75
1504969354.93,20635,15.44,73362.0,4.91,2.81,2.81,0,*73
1504969356.18,20636,15.44,73366.3,4.91,2.81,2.85,0,*74
1504969357.42,20637,15.44,73362.3,4.91,2.69,2.69,0,*71
1504969358.67,20638,15.44,73358.5,4.91,2.81,2.85,0,*7A
1504969359.93,20639,15.5,73364.3,4.91,3.03,3.03,0,*7F
1504969361.15,20640,15.44,73362.8,4.91,2.85,2.95,0,*70
1504969362.37,20641,15.5,73368.3,4.91,2.85,2.91,0,*75
1504969363.6,20642,15.44,73372.0,4.89,2.81,2.89,0,*72
1504969364.79,20643,15.44,73364.5,4.89,2.89,2.91,0,*72
1504969365.99,20644,15.5,73370.3,4.89,2.89,2.91,0,*75
1504969367.19,20645,15.5,73376.5,4.89,3.03,2.99,0,*7F
1504969368.42,20646,15.5,73378.3,4.89,3.23,3.15,0,*7B
1504969369.62,20647,15.5,73380.0,4.89,3.25,3.33,0,*78
1504969370.84,20648,15.44,73376.5,4.89,3.33,3.33,0,*70
1504969372.06,20649,15.44,73374.3,4.89,3.37,3.37,0,*71
1504969373.31,20650,15.44,73378.0,4.87,2.85,2.85,0,*77
1504969374.56,20651,15.44,73376.0,4.87,2.77,2.77,0,*76
1504969375.82,20652,15.44,73378.5,4.87,2.89,2.89,0,*75
1504969377.07,20653,15.44,73378.5,4.87,3.23,3.23,0,*74
1504969378.32,20654,15.44,73372.0,4.87,3.23,3.23,0,*73
1504969379.52,20655,15.5,73378.0,4.85,2.99,3.07,0,*76
1504969380.77,20656,15.5,73376.3,4.87,3.19,3.07,0,*7E
1504969382.0,20657,15.44,73382.8,4.85,3.23,3.33,0,*73
1504969383.26,20658,15.5,73386.3,4.87,3.11,3.19,0,*77
1504969384.51,20659,15.44,73374.5,4.87,2.77,2.77,0,*7E
1504969385.73,20660,15.5,73384.5,4.85,3.23,3.23,0,*76
1504969386.97,20661,15.44,73376.8,4.87,3.23,3.29,0,*7F
1504969388.21,20662,15.44,73370.0,4.87,3.19,3.23,0,*7F
1504969389.47,20663,15.44,73368.3,4.87,3.07,3.19,0,*78
1504969390.73,20664,15.44,73358.8,4.87,3.07,3.11,0,*77
1504969391.93,20665,15.44,73350.8,4.85,3.23,3.29,0,*79
1504969393.16,20666,15.44,73354.3,4.85,3.23,3.23,0,*70
1504969394.38,20667,15.44,73360.5,4.85,3.19,3.19,0,*71
1504969395.61,20668,15.5,73364.3,4.87,3.29,3.33,0,*77
1504969396.84,20669,15.44,73364.3,4.85,3.45,3.45,0,*7F
1504969398.06,20670,15.44,73362.3,4.85,3.37,3.37,0,*77
1504969399.32,20671,15.5,73362.8,4.87,3.37,3.37,0,*74
1504969400.52,20672,15.44,73360.5,4.85,3.23,3.29,0,*7F
1504969401.78,20673,15.44,73354.3,4.87,3.23,3.33,0,*77
1504969403.04,20674,15.5,73360.0,4.87,3.37,3.33,0,*75
1504969404.26,20675,15.44,73352.0,4.85,2.77,2.85,0,*7F
1504969405.48,20676,15.44,73350.5,4.85,2.77,2.77,0,*71
1504969406.73,20677,15.44,73364.0,4.87,3.19,3.19,0,*72
1504969407.95,20678,15.44,73366.3,4.85,3.19,3.19,0,*7F
1504969409.17,20679,15.44,73364.0,4.85,3.19,3.19,0,*7E
1504969410.39,20680,15.44,73368.3,4.85,3.19,3.23,0,*71
1504969411.59,20681,15.5,73366.5,4.85,2.99,3.11,0,*78
1504969412.84,20682,15.44,73366.0,4.87,3.33,3.33,0,*78
1504969414.07,20683,15.44,73364.0,4.85,3.37,3.33,0,*7F
1504969415.26,20684,15.5,73364.0,4.85,3.55,3.67,0,*7D
1504969416.46,20685,15.5,73362.3,4.85,3.49,3.55,0,*70
1504969417.71,20686,15.44,73356.8,4.87,3.45,3.49,0,*70
1504969418.95,20687,15.44,73358.8,4.85,3.67,3.71,0,*78
1504969420.18,20688,15.44,73354.8,4.87,3.59,3.71,0,*78
1504969421.37,20689,15.44,73352.8,4.87,3.55,3.55,0,*73
1504969422.63,20690,15.44,73352.8,4.87,3.45,3.49,0,*77
1504969423.82,20691,15.44,73348.5,4.87,3.55,3.55,0,*7A
1504969425.08,20692,15.5,73350.5,4.87,3.79,3.79,0,*79
1504969426.33,20693,15.44,73346.8,4.87,3.79,3.71,0,*70
1504969427.56,20694,15.44,73338.8,4.89,3.75,3.75,0,*71
1504969428.76,20695,15.5,73330.8,4.89,3.63,3.71,0,*73
1504969429.96,20696,15.5,73330.0,4.89,3.63,3.71,0,*70
1504969431.18,20697,15.5,73334.3,4.91,3.89,3.97,0,*74
1504969432.35,20698,15.44,73334.0,4.89,3.81,3.85,0,*79
1504969433.56,20699,15.5,73328.3,4.89,3.79,3.81,0,*7B
1504969434.75,20700,15.5,73332.8,4.91,3.55,3.55,0,*74
1504969435.97,20701,15.5,73334.8,4.91,3.63,3.75,0,*72
1504969437.17,20702,15.44,73328.8,4.91,3.63,3.63,0,*76
1504969438.39,20703,15.44,73316.8,4.91,3.53,3.63,0,*74
1504969439.58,20704,15.44,73320.8,4.91,3.55,3.55,0,*70
1504969440.81,20705,15.44,73328.8,4.89,3.71,3.75,0,*7C
1504969442.05,20706,15.44,73326.8,4.91,3.97,3.97,0,*72
1504969443.3,20707,15.44,73326.3,4.91,3.97,3.97,0,*73
1504969444.53,20708,15.44,73320.8,4.91,3.89,4.01,0,*7B
1504969445.78,20709,15.44,73318.8,4.91,3.75,3.79,0,*71
1504969446.99,20710,15.44,73326.8,4.93,4.11,4.19,0,*7F
1504969448.22,20711,15.44,73324.0,4.93,4.07,4.01,0,*70
1504969449.47,20712,15.44,73324.8,4.93,4.01,4.01,0,*75
1504969450.7,20713,15.44,73320.8,4.95,4.01,4.01,0,*72
1504969451.91,20714,15.5,73326.5,4.95,3.79,3.81,0,*72
1504969453.13,20715,15.5,73318.0,4.93,3.89,3.89,0,*72
1504969454.39,20716,15.5,73308.5,4.93,3.67,3.75,0,*72
1504969455.63,20717,15.44,73300.3,4.95,3.67,3.79,0,*79
1504969456.84,20718,15.44,73296.3,4.95,3.79,3.81,0,*7E
1504969458.07,20719,15.44,73300.0,4.95,3.67,3.67,0,*78
1504969459.31,20720,15.44,73318.0,4.93,3.89,3.97,0,*7B
1504969460.5,20721,15.44,73322.5,4.95,3.89,3.93,0,*78
1504969461.73,20722,15.44,73318.8,4.95,3.71,3.71,0,*70
1504969462.94,20723,15.5,73326.0,4.97,3.29,3.29,0,*73
1504969464.19,20724,15.44,73320.5,4.93,3.19,3.19,0,*70
1504969465.42,20725,15.44,73326.5,4.95,3.33,3.41,0,*72
1504969466.6,20726,15.44,73322.3,4.95,3.55,3.55,0,*74
1504969467.81,20727,15.5,73318.3,4.93,3.25,3.29,0,*7F
1504969469.07,20728,15.44,73324.5,4.93,3.03,3.03,0,*7C
1504969470.28,20729,15.44,73328.5,4.93,3.25,3.25,0,*7D
1504969471.49,20730,15.44,73326.8,4.93,3.25,3.25,0,*75
1504969472.75,20731,15.44,73326.5,4.93,3.37,3.41,0,*75
1504969474.01,20732,15.44,73328.5,4.93,3.45,3.45,0,*77
1504969475.25,20733,15.5,73328.8,4.93,3.29,3.41,0,*78
1504969476.49,20734,15.44,73324.0,4.95,3.45,3.45,0,*77
1504969477.7,20735,15.44,73322.5,4.93,3.29,3.29,0,*70
1504969478.91,20736,15.44,73324.0,4.93,3.25,3.29,0,*7F
1504969480.14,20737,15.44,73330.3,4.97,3.29,3.33,0,*7D
1504969481.39,20738,15.44,73324.8,4.93,3.45,3.53,0,*7A
1504969482.65,20739,15.44,73326.0,4.91,3.07,3.15,0,*7D
1504969483.85,20740,15.5,73336.3,4.91,3.55,3.55,0,*70
1504969485.11,20741,15.5,73342.5,4.93,3.79,3.79,0,*73
1504969486.33,20742,15.44,73348.8,4.93,3.63,3.67,0,*74
1504969487.6,20743,15.44,73356.5,4.93,3.45,3.49,0,*7D
1504969488.83,20744,15.44,73356.3,4.93,3.37,3.29,0,*79
1504969490.06,20745,15.44,73352.8,4.93,3.63,3.67,0,*73
1504969491.25,20746,15.44,73364.3,4.91,3.55,3.55,0,*76
1504969492.44,20747,15.44,73362.8,4.91,3.55,3.63,0,*72
1504969493.63,20748,15.44,73370.8,4.91,3.55,3.55,0,*78
1504969494.84,20749,15.44,73362.5,4.95,3.63,3.75,0,*7A
1504969496.07,20750,15.44,73358.0,4.93,3.63,3.67,0,*77
1504969497.26,20751,15.44,73372.5,4.95,3.81,3.89,0,*7C
1504969498.43,20752,15.44,73356.8,4.95,3.55,3.55,0,*77
1504969499.69,20753,15.44,73350.8,4.93,3.41,3.53,0,*73
1504969500.91,20754,15.44,73360.5,4.93,3.53,3.59,0,*7D
1504969502.18,20755,15.44,73332.0,4.93,3.03,3.03,0,*76
1504969503.41,20756,15.5,73334.3,4.95,2.77,2.89,0,*72
1504969504.66,20757,15.44,73336.0,4.93,2.73,2.73,0,*74
1504969505.88,20758,15.5,73338.8,4.95,3.07,2.99,0,*7B
1504969507.1,20759,15.5,73354.0,4.93,3.55,3.53,0,*7C
1504969508.36,20760,15.5,73394.0,4.93,3.07,2.85,0,*7B
1504969509.57,20761,15.44,73376.5,4.95,2.99,2.59,0,*7B
1504969510.78,20762,15.5,73388.3,4.95,2.99,2.59,0,*78
1504969511.98,20763,15.44,73364.0,4.95,3.33,3.29,0,*7E
1504969513.22,20764,15.5,73366.8,4.95,3.41,3.41,0,*72
1504969514.46,20765,15.44,73362.5,4.95,3.45,3.45,0,*73
1504969515.7,20766,15.44,73358.5,4.95,3.67,3.71,0,*77
1504969516.92,20767,15.44,73356.8,4.95,4.01,4.01,0,*71
1504969518.14,20768,15.44,73338.0,4.95,3.93,4.05,0,*76
1504969519.36,20769,15.44,73336.3,4.97,3.71,3.59,0,*77
1504969520.61,20770,15.44,73334.3,4.97,2.77,2.77,0,*75
1504969521.87,20771,15.44,73328.0,4.97,3.23,3.11,0,*75
1504969523.12,20772,15.44,73336.8,4.97,3.33,3.07,0,*70
1504969524.32,20773,15.44,73350.3,4.93,2.65,2.31,0,*73
1504969525.53,20774,15.44,73364.5,4.95,2.95,2.73,0,*7B
1504969526.74,20775,15.5,73336.3,4.95,2.73,2.61,0,*71
1504969527.95,20776,15.5,73358.3,4.95,3.07,2.95,0,*7B
1504969529.18,20777,15.44,73364.5,4.95,2.77,2.73,0,*74
1504969530.39,20778,15.44,73368.8,4.93,3.25,3.25,0,*79
1504969531.65,20779,15.44,73374.0,4.93,3.37,3.37,0,*78
1504969532.91,20780,15.44,73360.0,4.93,2.59,2.59,0,*7E
1504969534.17,20781,15.44,73360.5,4.93,2.55,2.59,0,*73
1504969535.41,20782,15.5,73356.5,4.91,2.69,2.73,0,*75
1504969536.66,20783,15.44,73334.8,4.91,2.85,2.85,0,*7F
1504969537.86,20784,15.44,73286.0,4.89,2.91,3.03,0,*7B
1504969539.08,20785,15.44,73254.0,4.89,2.89,2.89,0,*70
1504969540.26,20786,15.5,73272.3,4.89,2.61,2.65,0,*77
1504969541.46,20787,15.44,73280.3,4.89,2.27,2.21,0,*74
1504969542.63,20788,15.44,73308.8,4.89,2.31,2.31,0,*7D
1504969543.82,20789,15.44,73318.8,4.89,2.39,2.31,0,*74
1504969545.07,20790,15.5,73330.0,4.87,2.59,2.47,0,*75
1504969546.3,20791,15.44,73350.0,4.87,2.35,2.25,0,*7A
1504969547.5,20792,15.44,73354.3,4.85,2.01,1.75,0,*7A
1504969548.73,20793,15.5,73374.8,4.85,2.25,2.05,0,*79
1504969549.93,20794,15.44,73372.3,4.85,2.59,2.27,0,*75
1504969551.15,20795,15.44,73374.3,4.85,2.85,2.73,0,*74
1504969552.38,20796,15.44,73378.3,4.85,2.77,2.73,0,*7A
1504969553.58,20797,15.44,73374.5,4.85,3.23,3.29,0,*75
1504969554.82,20798,15.44,73378.3,4.81,3.41,3.41,0,*74
1504969556.05,20799,15.44,73380.3,4.85,3.07,3.19,0,*7E
1504969557.27,20800,15.44,73378.8,4.85,2.89,3.23,0,*7F
1504969558.5,20801,15.44,73380.3,4.85,3.07,3.45,0,*79
1504969559.73,20802,15.44,73370.3,4.85,2.73,3.11,0,*79
1504969560.92,20803,15.44,73368.8,4.85,2.99,3.23,0,*7D
1504969562.16,20804,15.44,73364.5,4.85,3.11,3.33,0,*7A
1504969563.38,20805,15.44,73354.0,4.87,3.37,3.59,0,*71
1504969564.6,20806,15.44,73354.5,4.89,3.33,3.23,0,*75
1504969565.8,20807,15.5,73348.0,4.89,3.25,3.33,0,*72
1504969567.06,20808,15.5,73344.5,4.87,3.67,3.67,0,*74
1504969568.31,20809,15.44,73342.8,4.87,3.71,3.71,0,*75
1504969569.53,20810,15.44,73340.0,4.89,3.53,3.53,0,*73
1504969570.78,20811,15.5,73338.3,4.91,3.37,3.41,0,*7A
1504969571.98,20812,15.44,73332.5,4.89,3.59,3.71,0,*7B
1504969573.18,20813,15.44,73328.8,4.91,3.85,3.85,0,*79
1504969574.4,20814,15.5,73328.0,4.89,3.49,3.49,0,*77
1504969575.62,20815,15.5,73324.0,4.89,3.49,3.53,0,*7D
1504969576.84,20816,15.44,73324.3,4.91,3.29,3.37,0,*73
1504969578.08,20817,15.5,73330.5,4.89,3.07,3.15,0,*77
1504969579.3,20818,15.44,73328.8,4.89,2.89,2.89,0,*7B
1504969580.53,20819,15.5,73330.3,4.89,3.15,3.15,0,*7A
1504969581.73,20820,15.44,73328.0,4.89,2.89,2.99,0,*71
1504969582.93,20821,15.5,73332.8,4.89,2.91,3.03,0,*7B
1504969584.1,20822,15.44,73338.0,4.89,2.99,3.25,0,*74
1504969585.33,20823,15.44,73332.3,4.89,2.77,3.33,0,*72
1504969586.53,20824,15.44,73334.0,4.89,2.61,3.15,0,*76
1504969587.75,20825,15.5,73340.5,4.89,2.51,3.23,0,*71
1504969588.98,20826,15.44,73340.0,4.91,2.43,3.29,0,*72
1504969590.21,20827,15.5,73340.0,4.89,2.51,3.15,0,*76
1504969591.43,20828,15.44,73344.5,4.89,2.77,3.15,0,*7D
1504969592.66,20829,15.44,73336.3,4.89,3.11,3.23,0,*78
1504969593.88,20830,15.5,73336.0,4.91,3.29,3.37,0,*77
1504969595.08,20831,15.44,73334.0,4.89,3.25,3.33,0,*77
1504969596.35,20832,15.44,73342.0,4.91,3.07,3.41,0,*78
1504969597.6,20833,15.44,73352.5,4.91,2.21,3.41,0,*7C
1504969598.85,20834,15.44,73352.5,4.91,0.87,3.37,0,*44
1504969600.06,20835,15.5,73356.0,4.91,0.05,3.07,0,*7C
1504969601.28,20836,15.5,73350.3,4.91,0.01,2.81,0,*74
1504969602.53,20837,15.5,73334.8,4.91,0.87,2.69,0,*4D
1504969603.78,20838,15.44,73336.3,4.91,1.71,2.81,0,*7C
1504969605.02,20839,15.44,73342.3,4.89,2.17,2.51,0,*7A
1504969606.24,20840,15.5,73338.3,4.89,2.55,2.51,0,*72
1504969607.44,20841,15.44,73336.3,4.89,2.77,2.65,0,*74
1504969608.69,20842,15.44,73332.5,4.91,2.81,2.85,0,*79
1504969609.94,20843,15.44,73334.3,4.91,2.73,2.81,0,*71
1504969611.17,20844,15.44,73322.3,4.89,2.43,2.43,0,*72
1504969612.39,20845,15.5,73336.0,4.87,2.99,2.85,0,*70
1504969613.64,20846,15.5,73326.8,4.87,2.77,2.73,0,*7A
1504969614.87,20847,15.44,73328.3,4.85,2.77,2.73,0,*79
1504969616.12,20848,15.44,73346.5,4.87,2.73,2.85,0,*79
1504969617.34,20849,15.44,73330.0,4.87,2.73,2.95,0,*79
1504969618.56,20850,15.44,73334.8,4.85,2.13,2.73,0,*7D
1504969619.79,20851,15.44,73308.0,4.85,0.79,2.05,0,*43
1504969621.02,20852,15.44,73322.5,4.85,1.29,2.47,0,*72
1504969622.23,20853,15.5,73334.3,4.81,1.83,2.51,0,*70
1504969623.48,20854,15.5,73320.3,4.79,2.09,2.47,0,*76
1504969624.72,20855,15.44,73304.5,4.79,1.75,2.13,0,*7E
1504969625.91,20856,15.5,73316.0,4.79,1.05,1.41,0,*7E
1504969627.17,20857,15.44,73314.8,4.79,1.29,1.47,0,*77
1504969628.4,20858,15.5,73320.0,4.77,1.85,1.93,0,*79
1504969629.63,20859,15.44,73318.8,4.77,2.51,2.39,0,*71
1504969630.88,20860,15.44,73318.3,4.75,2.73,2.73,0,*77
1504969632.08,20861,15.44,73320.0,4.77,2.89,2.91,0,*7D
1504969633.27,20862,15.44,73308.5,4.77,2.65,2.65,0,*77
1504969634.5,20863,15.5,73318.0,4.79,2.81,2.91,0,*79
1504969635.71,20864,15.44,73312.0,4.77,3.15,3.25,0,*72
1504969636.94,20865,15.5,73318.3,4.77,3.23,3.23,0,*70
1504969638.17,20866,15.44,73318.0,4.77,2.77,2.77,0,*73
1504969639.38,20867,15.5,73320.3,4.79,3.25,3.29,0,*70
1504969640.61,20868,15.44,73324.5,4.79,3.15,3.25,0,*70
1504969641.88,20869,15.5,73304.5,4.79,3.15,3.15,0,*72
1504969643.14,20870,15.44,73320.3,4.79,3.03,3.15,0,*7D
1504969644.39,20871,15.44,73322.3,4.79,3.33,3.41,0,*7E
1504969645.59,20872,15.5,73324.5,4.81,3.45,3.63,0,*7B
1504969646.79,20873,15.5,73316.0,4.79,3.63,3.63,0,*79
1504969648.05,20874,15.44,73312.8,4.79,3.67,3.67,0,*7E
1504969649.27,20875,15.5,73320.3,4.79,3.53,3.63,0,*7C
1504969650.51,20876,15.44,73314.0,4.81,3.41,3.45,0,*7F
1504969651.74,20877,15.44,73318.3,4.81,3.41,3.45,0,*7E
1504969652.97,20878,15.44,73326.8,4.85,3.49,3.49,0,*71
1504969654.2,20879,15.44,73354.8,4.87,3.29,3.45,0,*78
1504969655.43,20880,15.44,73332.3,4.85,3.37,3.49,0,*7F
1504969656.65,20881,15.44,73332.3,4.85,2.77,2.89,0,*76
1504969657.86,20882,15.44,73336.0,4.87,2.27,2.35,0,*75
1504969659.09,20883,15.5,73334.3,4.85,2.25,2.51,0,*76
1504969660.33,20884,15.44,73334.3,4.85,2.17,2.51,0,*70
1504969661.56,20885,15.5,73340.8,4.85,2.17,2.51,0,*71
1504969662.79,20886,15.44,73346.0,4.81,2.01,2.43,0,*72
1504969664.02,20887,15.5,73356.0,4.79,2.01,2.35,0,*75
1504969665.22,20888,15.44,73356.5,4.81,2.35,2.55,0,*7C
1504969666.42,20889,15.44,73358.3,4.81,2.31,2.47,0,*7A
1504969667.62,20890,15.44,73360.8,4.81,2.69,2.61,0,*7B
1504969668.85,20891,15.44,73370.0,4.81,2.69,2.69,0,*72
1504969670.05,20892,15.44,73366.0,4.79,2.91,2.91,0,*76
1504969671.25,20893,15.5,73370.8,4.79,2.95,2.91,0,*73
1504969672.47,20894,15.44,73370.5,4.81,3.19,3.19,0,*77
1504969673.7,20895,15.44,73372.0,4.79,3.33,3.29,0,*7A
1504969674.93,20896,15.5,73372.5,4.81,3.41,3.53,0,*76
1504969676.16,20897,15.44,73372.5,4.81,3.41,3.41,0,*74
1504969677.37,20898,15.5,73354.8,4.81,3.25,3.33,0,*7C
1504969678.57,20899,15.5,73348.0,4.81,2.95,3.03,0,*74
1504969679.8,20900,15.5,73346.3,4.81,3.03,3.15,0,*7C
1504969681.06,20901,15.5,73344.3,4.79,3.03,3.07,0,*79
1504969682.26,20902,15.5,73330.8,4.81,3.19,3.25,0,*76
1504969683.5,20903,15.44,73338.3,4.79,3.15,3.25,0,*7C
1504969684.76,20904,15.5,73344.0,4.79,3.15,3.15,0,*78
1504969686.03,20905,15.44,73342.3,4.79,3.07,3.15,0,*7A
1504969687.26,20906,15.44,73350.8,4.79,3.25,3.41,0,*78
1504969688.52,20907,15.5,73356.0,4.79,3.45,3.45,0,*7B
1504969689.69,20908,15.44,73360.0,4.81,3.55,3.63,0,*76
1504969690.89,20909,15.44,73368.5,4.81,3.63,3.75,0,*75
1504969692.12,20910,15.44,73372.3,4.81,3.67,3.67,0,*7A
1504969693.3,20911,15.44,73372.0,4.85,3.81,3.89,0,*77
1504969694.51,20912,15.44,73372.5,4.85,3.79,3.89,0,*73
1504969695.74,20913,15.5,73372.8,4.85,3.71,3.79,0,*75
1504969696.93,20914,15.44,73378.0,4.85,3.59,3.67,0,*77
1504969698.19,20915,15.44,73376.0,4.87,3.79,3.79,0,*79
1504969699.42,20916,15.5,73376.3,4.87,3.79,3.89,0,*75
1504969700.65,20917,15.5,73370.8,4.85,3.71,3.79,0,*71
1504969701.9,20918,15.44,73366.8,4.87,3.71,3.79,0,*7C
1504969703.13,20919,15.5,73366.8,4.87,3.59,3.67,0,*78
1504969704.38,20920,15.44,73356.3,4.87,3.79,3.79,0,*7F
1504969705.64,20921,15.5,73350.8,4.87,3.67,3.67,0,*7E
1504969706.89,20922,15.44,73354.8,4.87,3.49,3.49,0,*7D
1504969708.13,20923,15.5,73350.0,4.87,3.07,2.95,0,*76
1504969709.37,20924,15.5,73346.3,4.87,3.33,3.23,0,*7A
1504969710.63,20925,15.44,73342.0,4.87,3.37,3.37,0,*7A
1504969711.87,20926,15.44,73342.0,4.87,3.19,3.19,0,*79
1504969713.13,20927,15.44,73348.3,4.87,3.11,3.11,0,*78
1504969714.33,20928,15.5,73366.0,4.87,2.95,2.95,0,*77
1504969715.58,20929,15.5,73368.5,4.87,2.89,2.73,0,*73
1504969716.81,20930,15.5,73372.8,4.87,2.99,2.77,0,*7E
1504969718.04,20931,15.5,73360.8,4.85,2.59,2.39,0,*7B
1504969719.24,20932,15.44,73354.3,4.85,2.77,2.65,0,*7D
1504969720.42,20933,15.44,73348.8,4.85,2.61,2.61,0,*7F
1504969721.65,20934,15.44,73356.8,4.85,2.85,2.73,0,*71
1504969722.85,20935,15.5,73352.5,4.85,2.95,2.89,0,*74
1504969724.1,20936,15.44,73364.5,4.87,2.85,2.85,0,*78
1504969725.28,20937,15.44,73368.3,4.85,2.65,2.65,0,*7B
1504969726.48,20938,15.44,73360.8,4.81,2.31,2.21,0,*71
1504969727.71,20939,15.44,73354.3,4.81,2.47,2.43,0,*75
1504969728.91,20940,15.5,73366.3,4.79,2.35,2.31,0,*7C
1504969730.14,20941,15.5,73356.3,4.81,2.55,2.59,0,*72
1504969731.36,20942,15.5,73360.5,4.79,2.61,2.69,0,*72
1504969732.6,20943,15.44,73352.8,4.79,2.91,3.03,0,*71
1504969733.77,20944,15.5,73364.3,4.81,2.91,2.95,0,*7F
1504969735.03,20945,15.44,73366.5,4.79,2.73,2.81,0,*70
1504969736.26,20946,15.44,73364.5,4.79,2.91,3.07,0,*70